SAS4140 ENBR-ENAL

Flight info

Callsign SAS4140
Flight time 0h 36m
Altitude 19000
Route OLDAS DCT TUMIM
Aircraft A320/M-SDE3FGHIJ1RWXYZ/ALB1

Departure

Time 2026-05-07 19:41
Airport Bergen Airport, Flesland (ENBR)

Arrival

Time 2026-05-07 20:18
Airport Ålesund Airport (ENAL)
Time Latitude Longitude Altitude Speed Heading
2026-05-07 19:11 60.29193 5.22420 154 ft 0 kts 82°
2026-05-07 19:34 60.29193 5.22411 153 ft 3 kts 82°
2026-05-07 19:34 60.29190 5.22358 153 ft 4 kts 88°
2026-05-07 19:34 60.29190 5.22306 153 ft 4 kts 99°
2026-05-07 19:34 60.29192 5.22285 153 ft 0 kts 104°
2026-05-07 19:36 60.29192 5.22290 153 ft 2 kts 104°
2026-05-07 19:36 60.29187 5.22331 153 ft 5 kts 104°
2026-05-07 19:37 60.29184 5.22352 153 ft 0 kts 104°
2026-05-07 19:37 60.29184 5.22355 153 ft 1 kts 104°
2026-05-07 19:38 60.29159 5.22360 153 ft 5 kts 216°
2026-05-07 19:38 60.29134 5.22337 152 ft 7 kts 189°
2026-05-07 19:38 60.29074 5.22352 152 ft 11 kts 171°
2026-05-07 19:38 60.28989 5.22379 151 ft 14 kts 172°
2026-05-07 19:39 60.28878 5.22414 150 ft 18 kts 170°
2026-05-07 19:39 60.28755 5.22459 149 ft 17 kts 171°
2026-05-07 19:39 60.28629 5.22495 148 ft 16 kts 173°
2026-05-07 19:39 60.28515 5.22536 147 ft 17 kts 170°
2026-05-07 19:40 60.28392 5.22576 146 ft 15 kts 170°
2026-05-07 19:40 60.28304 5.22544 145 ft 13 kts 243°
2026-05-07 19:40 60.28280 5.22343 145 ft 16 kts 264°
2026-05-07 19:40 60.28330 5.22153 147 ft 16 kts 345°
2026-05-07 19:41 60.28513 5.22093 150 ft 58 kts 351°
2026-05-07 19:41 60.29205 5.21859 156 ft 137 kts 351°
2026-05-07 19:41 60.30288 5.21462 596 ft 162 kts 349°
2026-05-07 19:41 60.31418 5.21126 1462 ft 171 kts 352°
2026-05-07 19:42 60.32662 5.20741 1896 ft 191 kts 351°
2026-05-07 19:42 60.34051 5.20274 2270 ft 214 kts 351°
2026-05-07 19:42 60.35606 5.19741 2688 ft 239 kts 351°
2026-05-07 19:42 60.37324 5.19147 3193 ft 262 kts 351°
2026-05-07 19:43 60.39158 5.18516 3994 ft 271 kts 351°
2026-05-07 19:43 60.41046 5.17875 4925 ft 278 kts 351°
2026-05-07 19:43 60.42970 5.17222 5815 ft 284 kts 350°
2026-05-07 19:43 60.44945 5.16553 6692 ft 291 kts 350°
2026-05-07 19:44 60.46954 5.15870 7590 ft 295 kts 349°
2026-05-07 19:44 60.48992 5.15215 8515 ft 298 kts 352°
2026-05-07 19:44 60.51081 5.15119 9445 ft 302 kts 359°
2026-05-07 19:44 60.53193 5.15195 10275 ft 309 kts 358°
2026-05-07 19:45 60.55413 5.15266 10727 ft 326 kts 358°
2026-05-07 19:45 60.57697 5.15340 11490 ft 331 kts 358°
2026-05-07 19:45 60.60014 5.15423 12327 ft 334 kts 357°
2026-05-07 19:45 60.62349 5.15514 13211 ft 337 kts 357°
2026-05-07 19:46 60.64700 5.15605 14073 ft 339 kts 357°
2026-05-07 19:46 60.67072 5.15693 14839 ft 343 kts 356°
2026-05-07 19:46 60.69471 5.15776 15570 ft 347 kts 356°
2026-05-07 19:46 60.71897 5.15859 16307 ft 350 kts 356°
2026-05-07 19:47 60.74348 5.15946 17046 ft 354 kts 356°
2026-05-07 19:47 60.76824 5.16039 17776 ft 358 kts 356°
2026-05-07 19:47 60.79326 5.16130 18486 ft 361 kts 356°
2026-05-07 19:47 60.81851 5.16220 18951 ft 365 kts 355°
2026-05-07 19:48 60.84392 5.16312 19082 ft 363 kts 355°
2026-05-07 19:48 60.86867 5.16412 19110 ft 348 kts 355°
2026-05-07 19:48 60.89234 5.16518 19109 ft 333 kts 355°
2026-05-07 19:48 60.91505 5.16616 19108 ft 319 kts 355°
2026-05-07 19:49 60.93682 5.16704 19107 ft 306 kts 355°
2026-05-07 19:49 60.95766 5.16785 19118 ft 293 kts 354°
2026-05-07 19:49 60.97758 5.16855 19110 ft 280 kts 354°
2026-05-07 19:49 60.99662 5.16921 19109 ft 266 kts 353°
2026-05-07 19:50 61.01493 5.16980 19109 ft 262 kts 353°
2026-05-07 19:50 61.03311 5.17032 19100 ft 261 kts 353°
2026-05-07 19:50 61.05137 5.17119 19115 ft 266 kts 358°
2026-05-07 19:50 61.06983 5.17747 19113 ft 272 kts
2026-05-07 19:51 61.08808 5.19120 19110 ft 279 kts 21°
2026-05-07 19:51 61.10499 5.21015 19110 ft 281 kts 23°
2026-05-07 19:51 61.12234 5.22984 19116 ft 282 kts 23°
2026-05-07 19:51 61.13936 5.24904 19108 ft 282 kts 23°
2026-05-07 19:52 61.15683 5.26874 19112 ft 283 kts 23°
2026-05-07 19:52 61.17408 5.28819 19109 ft 283 kts 23°
2026-05-07 19:52 61.19139 5.30770 19113 ft 283 kts 23°
2026-05-07 19:52 61.20874 5.32733 19106 ft 284 kts 23°
2026-05-07 19:53 61.22612 5.34704 19113 ft 285 kts 23°
2026-05-07 19:53 61.24350 5.36677 19121 ft 286 kts 22°
2026-05-07 19:53 61.26092 5.38663 19120 ft 286 kts 22°
2026-05-07 19:53 61.27841 5.40660 19116 ft 287 kts 23°
2026-05-07 19:54 61.29587 5.42657 19113 ft 287 kts 23°
2026-05-07 19:54 61.31337 5.44662 19115 ft 288 kts 23°
2026-05-07 19:54 61.33092 5.46681 19113 ft 288 kts 23°
2026-05-07 19:54 61.34853 5.48700 19114 ft 289 kts 23°
2026-05-07 19:55 61.36616 5.50720 19113 ft 290 kts 23°
2026-05-07 19:55 61.38383 5.52748 19113 ft 290 kts 23°
2026-05-07 19:55 61.40150 5.54779 19114 ft 291 kts 23°
2026-05-07 19:55 61.41922 5.56819 19114 ft 291 kts 23°
2026-05-07 19:56 61.43696 5.58866 19110 ft 292 kts 23°
2026-05-07 19:56 61.45473 5.60920 19114 ft 292 kts 23°
2026-05-07 19:56 61.47251 5.62977 19086 ft 293 kts 23°
2026-05-07 19:56 61.49030 5.65039 19083 ft 292 kts 23°
2026-05-07 19:57 61.50806 5.67108 19086 ft 292 kts 23°
2026-05-07 19:57 61.52584 5.69184 19089 ft 293 kts 23°
2026-05-07 19:57 61.54364 5.71256 19092 ft 293 kts 22°
2026-05-07 19:57 61.56152 5.73334 19094 ft 294 kts 22°
2026-05-07 19:58 61.57938 5.75408 19097 ft 294 kts 22°
2026-05-07 19:58 61.59727 5.77487 19093 ft 294 kts 22°
2026-05-07 19:58 61.61517 5.79579 19100 ft 294 kts 23°
2026-05-07 19:58 61.63303 5.81672 19113 ft 295 kts 23°
2026-05-07 19:59 61.65091 5.83772 19112 ft 294 kts 23°
2026-05-07 19:59 61.66878 5.85876 19113 ft 294 kts 23°
2026-05-07 19:59 61.68663 5.87984 19113 ft 294 kts 23°
2026-05-07 19:59 61.70446 5.90089 19109 ft 294 kts 23°
2026-05-07 20:00 61.72235 5.92191 19111 ft 294 kts 22°
2026-05-07 20:00 61.74051 5.94160 19111 ft 293 kts 19°
2026-05-07 20:00 61.75896 5.95961 19113 ft 292 kts 17°
2026-05-07 20:00 61.77754 5.97697 19114 ft 292 kts 17°
2026-05-07 20:01 61.79610 5.99413 19140 ft 292 kts 17°
2026-05-07 20:01 61.81469 6.01143 19112 ft 292 kts 17°
2026-05-07 20:01 61.83321 6.02891 19113 ft 292 kts 17°
2026-05-07 20:01 61.85180 6.04668 18989 ft 295 kts 18°
2026-05-07 20:02 61.87048 6.06468 18671 ft 295 kts 18°
2026-05-07 20:02 61.88917 6.08271 18328 ft 296 kts 18°
2026-05-07 20:02 61.90794 6.10087 17976 ft 296 kts 18°
2026-05-07 20:02 61.92669 6.11911 17651 ft 296 kts 19°
2026-05-07 20:03 61.94539 6.13735 17311 ft 295 kts 19°
2026-05-07 20:03 61.96401 6.15550 16979 ft 294 kts 19°
2026-05-07 20:03 61.98262 6.17358 16661 ft 294 kts 19°
2026-05-07 20:03 62.00115 6.19161 16335 ft 293 kts 20°
2026-05-07 20:04 62.01973 6.20970 16002 ft 293 kts 20°
2026-05-07 20:04 62.03822 6.22776 15677 ft 292 kts 20°
2026-05-07 20:04 62.05669 6.24582 15354 ft 294 kts 20°
2026-05-07 20:04 62.07527 6.26400 15025 ft 293 kts 20°
2026-05-07 20:05 62.09380 6.28216 14707 ft 294 kts 21°
2026-05-07 20:05 62.11236 6.30038 14365 ft 293 kts 22°
2026-05-07 20:05 62.13095 6.31861 14040 ft 295 kts 22°
2026-05-07 20:05 62.14960 6.33690 13687 ft 295 kts 22°
2026-05-07 20:06 62.16820 6.35523 13337 ft 294 kts 22°
2026-05-07 20:06 62.18666 6.37351 13016 ft 292 kts 22°
2026-05-07 20:06 62.20504 6.39172 12689 ft 290 kts 22°
2026-05-07 20:06 62.22338 6.40988 12357 ft 289 kts 22°
2026-05-07 20:07 62.24163 6.42794 12029 ft 289 kts 23°
2026-05-07 20:07 62.25987 6.44605 11694 ft 288 kts 23°
2026-05-07 20:07 62.27802 6.46415 11369 ft 287 kts 23°
2026-05-07 20:07 62.29614 6.48227 11040 ft 288 kts 24°
2026-05-07 20:08 62.31433 6.50045 10709 ft 288 kts 23°
2026-05-07 20:08 62.33242 6.51852 10377 ft 287 kts 23°
2026-05-07 20:08 62.35053 6.53657 10048 ft 286 kts 23°
2026-05-07 20:08 62.36874 6.55419 9688 ft 286 kts 22°
2026-05-07 20:09 62.38687 6.57128 9364 ft 284 kts 22°
2026-05-07 20:09 62.40495 6.58821 9035 ft 283 kts 22°
2026-05-07 20:09 62.42297 6.60511 8711 ft 282 kts 23°
2026-05-07 20:10 62.45865 6.63912 8039 ft 280 kts 25°
2026-05-07 20:10 62.47618 6.65746 7695 ft 280 kts 26°
2026-05-07 20:10 62.49356 6.67647 7345 ft 280 kts 27°
2026-05-07 20:10 62.51084 6.69566 6999 ft 280 kts 27°
2026-05-07 20:11 62.52816 6.71487 6695 ft 278 kts 27°
2026-05-07 20:11 62.54514 6.73354 6537 ft 271 kts 26°
2026-05-07 20:11 62.56320 6.74445 6359 ft 263 kts 358°
2026-05-07 20:11 62.58003 6.73484 6186 ft 252 kts 328°
2026-05-07 20:12 62.59253 6.70723 5510 ft 261 kts 296°
2026-05-07 20:12 62.60075 6.67126 4913 ft 271 kts 294°
2026-05-07 20:12 62.60916 6.63390 4305 ft 279 kts 294°
2026-05-07 20:12 62.61769 6.59621 3996 ft 270 kts 295°
2026-05-07 20:13 62.62561 6.56149 3860 ft 250 kts 295°
2026-05-07 20:13 62.63312 6.52864 3745 ft 230 kts 294°
2026-05-07 20:13 62.63734 6.49677 3655 ft 212 kts 273°
2026-05-07 20:13 62.63645 6.46591 3425 ft 207 kts 253°
2026-05-07 20:14 62.63311 6.44622 3222 ft 205 kts 242°
2026-05-07 20:14 62.62708 6.41832 3025 ft 201 kts 243°
2026-05-07 20:14 62.61927 6.38190 2698 ft 200 kts 243°
2026-05-07 20:14 62.61528 6.36339 2519 ft 200 kts 244°
2026-05-07 20:15 62.60942 6.33616 2288 ft 197 kts 244°
2026-05-07 20:15 62.60385 6.31020 2062 ft 183 kts 244°
2026-05-07 20:15 62.59857 6.28577 1719 ft 175 kts 244°
2026-05-07 20:15 62.59345 6.26248 1401 ft 166 kts 244°
2026-05-07 20:16 62.58870 6.24051 1145 ft 157 kts 244°
2026-05-07 20:16 62.58417 6.21992 1005 ft 149 kts 245°
2026-05-07 20:16 62.57984 6.19960 791 ft 147 kts 246°
2026-05-07 20:16 62.57552 6.17955 601 ft 147 kts 244°
2026-05-07 20:17 62.57113 6.15953 414 ft 147 kts 244°
2026-05-07 20:17 62.56678 6.13951 207 ft 147 kts 244°
2026-05-07 20:17 62.56250 6.11960 69 ft 137 kts 244°
2026-05-07 20:17 62.55912 6.10422 60 ft 92 kts 244°
2026-05-07 20:18 62.55711 6.09507 59 ft 46 kts 245°
2026-05-07 20:18 62.55599 6.09110 60 ft 17 kts 209°
2026-05-07 20:18 62.55601 6.09012 55 ft 2 kts
2026-05-07 20:18 62.55617 6.09066 57 ft 8 kts 66°
2026-05-07 20:19 62.55648 6.09214 60 ft 14 kts 65°
2026-05-07 20:19 62.55696 6.09432 58 ft 17 kts 64°
2026-05-07 20:19 62.55750 6.09677 59 ft 19 kts 64°
2026-05-07 20:19 62.55810 6.09951 59 ft 22 kts 64°
2026-05-07 20:20 62.55877 6.10257 60 ft 24 kts 64°
2026-05-07 20:20 62.55948 6.10592 63 ft 24 kts 79°
2026-05-07 20:20 62.55913 6.10928 59 ft 20 kts 105°
2026-05-07 20:20 62.55916 6.11219 65 ft 11 kts 80°
2026-05-07 20:21 62.55872 6.11308 68 ft 0 kts 155°